SL-12 R/B(2), 20266

Orbit data source: Space-Track

SL-12 R/B(2), 20266 is space debris in GEO originally from a launch on Thu, 28 Sep 1989 UTC launched from the Tyuratam Missile And Space Complex (TTMTR). Debris objects in space refer to the collection of defunct objects orbiting the Earth. Examples of debris include non-operational satellites, rocket bodies, and fragments generated from explosions, collisions, or faulty payload assembly.

Loading next visibility...
Identifier
20266, 1989-081D
Orbit
GEO
Country
Flag of CISCIS
Related business
Manufacturer
NPO Energiya
Mission
Spacecraft
Bus & Motor
BLOK DM, Unknown motor
Mass
2,440 kg wet, 2,440 kg dry
Launch date (UTC)
1989-09-28 (36 years ago)
Launch vehicle
Unknown
Launch site
Tyuratam Missile And Space Complex (TTMTR)
Object type
Payload
Rocket body
Debris
Shape & HBR
Cyl, 3.1 m
Radar Cross Section
23.597 m², Large (>1 m²)

Expand to show TLE details & history
Last TLE update: 1 day ago

TLE from 1 day ago
0 SL-12 R/B(2)
1 20266U 89081D   25259.34165486  .00000043  00000-0  00000-0 0  9999
2 20266  12.1873 334.7203 0026630 123.4181 239.6310  1.00611891116604
Epoch: 2025-09-16T08:11Z
TLE epoch observation values (Epoch: 2025-09-16T08:11:58.979Z)
Latitude
0.58171°
Longitude
-141.08871°
Altitude
35,747.955 km
Speed
3.074 km/s
True Right ascension
22h 29m 45s
True Declination
0° 34' 52"
Sunlit
Object was in daylight at epoch
Visualization orbit readout
Latitude
Unknown
Longitude
Unknown
Altitude
Unknown
Speed
Unknown
Apparent Right ascension
Unknown
Apparent Declination
Unknown
Sunlit
N/A
Visualization observer readout
Local Sidereal Time
11:45:59
Azimuth
Unknown
Elevation
Unknown
Doppler factor
Unknown
Orbital elements
Apogee altitude
35,804.556 km
Perigee altitude
35,580.488 km
Semi-major axis
42,070.659 km
Eccentricity
0.00266
Inclination
12.1873°
RAAN
334.7203°
Arg. of periapsis
123.4181°
True anomaly
239.36816°
Mean anomaly
239.631°
Eccentric anomaly
239.49953°
Mean motion
0.25152 °/min
Orbital period
1,431.29 mins
BSTAR
0
Loading maneuver chart data...
Computing Atmospheric mass density...
Loading historical data...
Loading historical data...
Loading historical data...
Loading historical data...
Loading historical data...
Loading historical data...
Loading historical data...

Documentation

Showing up to 5 results
|